owner,sensor,date,latitude,longitude,vertical_datum,direction_of_sea_water_velocity,sea_water_speed,upward_sea_water_velocity,qcFlag 
TABS,ioos:station:wmo:42045:1,2013-06-01T00:00:00Z,26.2168,-96.4998,2.0,33.52255826,37.91669421,-99999.0,'11111222,11111222,99999999' 
TABS,ioos:station:wmo:42045:1,2013-06-01T00:30:00Z,26.2168,-96.4998,2.0,37.80437925,41.20947949,-99999.0,'11111222,11111222,99999999' 
TABS,ioos:station:wmo:42045:1,2013-06-01T01:00:00Z,26.2168,-96.4998,2.0,32.84693967,34.86390971,-99999.0,'11111222,11111222,99999999' 
TABS,ioos:station:wmo:42045:1,2013-06-01T01:30:00Z,26.2168,-96.4998,2.0,28.88952605,37.05082455,-99999.0,'11111222,11111222,99999999' 
TABS,ioos:station:wmo:42045:1,2013-06-01T02:00:00Z,26.2168,-96.4998,2.0,17.23936552,33.33766639,-99999.0,'11111222,11111222,99999999' 
TABS,ioos:station:wmo:42045:1,2013-06-01T02:30:00Z,26.2168,-96.4998,2.0,23.22017847,35.10346422,-99999.0,'11111222,11111222,99999999' 
TABS,ioos:station:wmo:42045:1,2013-06-01T03:00:00Z,26.2168,-96.4998,2.0,18.9379118,29.54946023,-99999.0,'11111222,11111222,99999999' 
TABS,ioos:station:wmo:42045:1,2013-06-01T03:30:00Z,26.2168,-96.4998,2.0,2.225515449,32.96486008,-99999.0,'11111222,11111222,99999999' 
TABS,ioos:station:wmo:42045:1,2013-06-01T04:00:00Z,26.2168,-96.4998,2.0,356.8320975,35.28392552,-99999.0,'11111222,11111222,99999999' 
TABS,ioos:station:wmo:42045:1,2013-06-01T04:30:00Z,26.2168,-96.4998,2.0,352.4386777,41.18816942,-99999.0,'11111222,11111222,99999999' 
TABS,ioos:station:wmo:42045:1,2013-06-01T05:00:00Z,26.2168,-96.4998,2.0,352.641739,42.00595196,-99999.0,'11111222,11111222,99999999' 
TABS,ioos:station:wmo:42045:1,2013-06-01T05:30:00Z,26.2168,-96.4998,2.0,353.1793941,42.5209466,-99999.0,'11111222,11111222,99999999' 
TABS,ioos:station:wmo:42045:1,2013-06-01T06:00:00Z,26.2168,-96.4998,2.0,357.2196679,40.19732578,-99999.0,'11111222,11111222,99999999' 
TABS,ioos:station:wmo:42045:1,2013-06-01T06:30:00Z,26.2168,-96.4998,2.0,1.011120214,39.67617547,-99999.0,'11111222,11111222,99999999' 
TABS,ioos:station:wmo:42045:1,2013-06-01T07:00:00Z,26.2168,-96.4998,2.0,0.901803218,43.21535028,-99999.0,'11111222,11111222,99999999' 
TABS,ioos:station:wmo:42045:1,2013-06-01T07:30:00Z,26.2168,-96.4998,2.0,5.635498748,46.94689021,-99999.0,'11111222,11111222,99999999' 
TABS,ioos:station:wmo:42045:1,2013-06-01T08:00:00Z,26.2168,-96.4998,2.0,1.766847177,47.68266456,-99999.0,'11111222,11111222,99999999' 
TABS,ioos:station:wmo:42045:1,2013-06-01T08:30:00Z,26.2168,-96.4998,2.0,5.829899934,44.99269385,-99999.0,'11111222,11111222,99999999' 
TABS,ioos:station:wmo:42045:1,2013-06-01T09:00:00Z,26.2168,-96.4998,2.0,1.459075893,50.2762966,-99999.0,'11111222,11111222,99999999' 
TABS,ioos:station:wmo:42045:1,2013-06-01T09:30:00Z,26.2168,-96.4998,2.0,3.996904588,45.91165429,-99999.0,'11111222,11111222,99999999' 
TABS,ioos:station:wmo:42045:1,2013-06-01T10:00:00Z,26.2168,-96.4998,2.0,4.220685826,50.54707212,-99999.0,'11111222,11111222,99999999' 
TABS,ioos:station:wmo:42045:1,2013-06-01T10:30:00Z,26.2168,-96.4998,2.0,6.3311766,54.95514535,-99999.0,'11111222,11111222,99999999' 
TABS,ioos:station:wmo:42045:1,2013-06-01T11:00:00Z,26.2168,-96.4998,2.0,10.16346965,53.21500258,-99999.0,'11111222,11111222,99999999' 
TABS,ioos:station:wmo:42045:1,2013-06-01T11:30:00Z,26.2168,-96.4998,2.0,14.02106799,63.3575836,-99999.0,'11111222,11111222,99999999' 
TABS,ioos:station:wmo:42045:1,2013-06-01T12:00:00Z,26.2168,-96.4998,2.0,16.06292458,66.39199425,-99999.0,'11111222,11111222,99999999' 
TABS,ioos:station:wmo:42045:1,2013-06-01T12:30:00Z,26.2168,-96.4998,2.0,17.16748972,62.60944657,-99999.0,'11111222,11111222,99999999' 
TABS,ioos:station:wmo:42045:1,2013-06-01T13:00:00Z,26.2168,-96.4998,2.0,22.73770423,68.53629841,-99999.0,'11111222,11111222,99999999' 
TABS,ioos:station:wmo:42045:1,2013-06-01T13:30:00Z,26.2168,-96.4998,2.0,18.77387683,65.25157776,-99999.0,'11111222,11111222,99999999' 
TABS,ioos:station:wmo:42045:1,2013-06-01T14:00:00Z,26.2168,-96.4998,2.0,22.39780351,67.63204714,-99999.0,'11111222,11111222,99999999' 
TABS,ioos:station:wmo:42045:1,2013-06-01T14:30:00Z,26.2168,-96.4998,2.0,26.56150945,69.43885512,-99999.0,'11111222,11111222,99999999' 
TABS,ioos:station:wmo:42045:1,2013-06-01T15:00:00Z,26.2168,-96.4998,2.0,33.37543725,75.72881354,-99999.0,'11111222,11111222,99999999' 
TABS,ioos:station:wmo:42045:1,2013-06-01T15:30:00Z,26.2168,-96.4998,2.0,34.03063931,72.35082377,-99999.0,'11111222,11111222,99999999' 
TABS,ioos:station:wmo:42045:1,2013-06-01T16:00:00Z,26.2168,-96.4998,2.0,36.21913623,75.17685083,-99999.0,'11111222,11111222,99999999' 
TABS,ioos:station:wmo:42045:1,2013-06-01T16:30:00Z,26.2168,-96.4998,2.0,39.81820769,76.1768239,-99999.0,'11111222,11111222,99999999' 
TABS,ioos:station:wmo:42045:1,2013-06-01T17:00:00Z,26.2168,-96.4998,2.0,43.56815845,69.32518518,-99999.0,'11111222,11111222,99999999' 
TABS,ioos:station:wmo:42045:1,2013-06-01T17:30:00Z,26.2168,-96.4998,2.0,50.98415345,62.06152834,-99999.0,'11111222,11111222,99999999' 
TABS,ioos:station:wmo:42045:1,2013-06-01T18:00:00Z,26.2168,-96.4998,2.0,55.35405969,52.36543994,-99999.0,'11111222,11111222,99999999' 
TABS,ioos:station:wmo:42045:1,2013-06-01T18:30:00Z,26.2168,-96.4998,2.0,61.34857886,45.69527437,-99999.0,'11111222,11111222,99999999' 
TABS,ioos:station:wmo:42045:1,2013-06-01T19:00:00Z,26.2168,-96.4998,2.0,62.70368762,46.25012541,-99999.0,'11111222,11111222,99999999' 
TABS,ioos:station:wmo:42045:1,2013-06-01T19:30:00Z,26.2168,-96.4998,2.0,66.00179561,45.53625369,-99999.0,'11111222,11111222,99999999' 
TABS,ioos:station:wmo:42045:1,2013-06-01T20:00:00Z,26.2168,-96.4998,2.0,73.68793132,38.41641576,-99999.0,'11111222,11111222,99999999' 
TABS,ioos:station:wmo:42045:1,2013-06-01T20:30:00Z,26.2168,-96.4998,2.0,68.64159529,30.50508482,-99999.0,'11111222,11111222,99999999' 
TABS,ioos:station:wmo:42045:1,2013-06-01T21:00:00Z,26.2168,-96.4998,2.0,78.54613537,18.73307236,-99999.0,'11111222,11111222,99999999' 
TABS,ioos:station:wmo:42045:1,2013-06-01T21:30:00Z,26.2168,-96.4998,2.0,71.63411327,18.37600882,-99999.0,'11111222,11111222,99999999' 
TABS,ioos:station:wmo:42045:1,2013-06-01T22:00:00Z,26.2168,-96.4998,2.0,69.31177389,18.25729717,-99999.0,'11111222,11111222,99999999' 
TABS,ioos:station:wmo:42045:1,2013-06-01T22:30:00Z,26.2168,-96.4998,2.0,48.16837171,19.44687636,-99999.0,'11111222,11111222,99999999' 
TABS,ioos:station:wmo:42045:1,2013-06-01T23:00:00Z,26.2168,-96.4998,2.0,45.6724305,22.29661185,-99999.0,'11111222,11111222,99999999' 
TABS,ioos:station:wmo:42045:1,2013-06-01T23:30:00Z,26.2168,-96.4998,2.0,44.60295097,19.38226251,-99999.0,'11111222,11111222,99999999' 
TABS,ioos:station:wmo:42045:1,2013-06-02T00:00:00Z,26.2168,-96.4998,2.0,37.00899995,15.66604609,-99999.0,'11111222,11111222,99999999' 
TABS,ioos:station:wmo:42045:1,2013-06-02T00:30:00Z,26.2168,-96.4998,2.0,28.17549635,16.71002693,-99999.0,'11111222,11111222,99999999' 
TABS,ioos:station:wmo:42045:1,2013-06-02T01:00:00Z,26.2168,-96.4998,2.0,17.065997,18.26420543,-99999.0,'11111222,11111222,99999999' 
TABS,ioos:station:wmo:42045:1,2013-06-02T01:30:00Z,26.2168,-96.4998,2.0,11.12559008,12.17887515,-99999.0,'11111222,11111222,99999999' 
TABS,ioos:station:wmo:42045:1,2013-06-02T02:00:00Z,26.2168,-96.4998,2.0,23.45834507,11.88204107,-99999.0,'11111222,11111222,99999999' 
TABS,ioos:station:wmo:42045:1,2013-06-02T02:30:00Z,26.2168,-96.4998,2.0,17.26358937,15.46677083,-99999.0,'11111222,11111222,99999999' 
TABS,ioos:station:wmo:42045:1,2013-06-02T03:00:00Z,26.2168,-96.4998,2.0,2.679334879,11.55262741,-99999.0,'11111222,11111222,99999999' 
TABS,ioos:station:wmo:42045:1,2013-06-02T03:30:00Z,26.2168,-96.4998,2.0,7.640009175,11.73415954,-99999.0,'11111222,11111222,99999999' 
TABS,ioos:station:wmo:42045:1,2013-06-02T04:00:00Z,26.2168,-96.4998,2.0,357.5764448,13.24184655,-99999.0,'11111222,11111222,99999999' 
TABS,ioos:station:wmo:42045:1,2013-06-02T04:30:00Z,26.2168,-96.4998,2.0,353.114201,13.67866953,-99999.0,'11111222,11111222,99999999' 
TABS,ioos:station:wmo:42045:1,2013-06-02T05:00:00Z,26.2168,-96.4998,2.0,338.5475958,11.59317472,-99999.0,'11111222,11111222,99999999' 
TABS,ioos:station:wmo:42045:1,2013-06-02T05:30:00Z,26.2168,-96.4998,2.0,351.554886,10.28148822,-99999.0,'11111222,11111222,99999999' 
TABS,ioos:station:wmo:42045:1,2013-06-02T06:00:00Z,26.2168,-96.4998,2.0,327.3174254,11.83358357,-99999.0,'11111222,11111222,99999999' 
TABS,ioos:station:wmo:42045:1,2013-06-02T06:30:00Z,26.2168,-96.4998,2.0,340.93955,19.68951498,-99999.0,'11111222,11111222,99999999' 
TABS,ioos:station:wmo:42045:1,2013-06-02T07:00:00Z,26.2168,-96.4998,2.0,335.6085862,23.58512243,-99999.0,'11111222,11111222,99999999' 
TABS,ioos:station:wmo:42045:1,2013-06-02T07:30:00Z,26.2168,-96.4998,2.0,342.9709539,22.9460672,-99999.0,'11111222,11111222,99999999' 
TABS,ioos:station:wmo:42045:1,2013-06-02T08:00:00Z,26.2168,-96.4998,2.0,343.8073204,23.84601644,-99999.0,'11111222,11111222,99999999' 
TABS,ioos:station:wmo:42045:1,2013-06-02T08:30:00Z,26.2168,-96.4998,2.0,352.5230621,21.5936148,-99999.0,'11111222,11111222,99999999' 
TABS,ioos:station:wmo:42045:1,2013-06-02T09:00:00Z,26.2168,-96.4998,2.0,358.8869823,26.76505184,-99999.0,'11111222,11111222,99999999' 
TABS,ioos:station:wmo:42045:1,2013-06-02T09:30:00Z,26.2168,-96.4998,2.0,352.1491876,25.84223094,-99999.0,'11111222,11111222,99999999' 
TABS,ioos:station:wmo:42045:1,2013-06-02T10:00:00Z,26.2168,-96.4998,2.0,6.222380736,28.41740488,-99999.0,'11111222,11111222,99999999' 
TABS,ioos:station:wmo:42045:1,2013-06-02T10:30:00Z,26.2168,-96.4998,2.0,7.835868615,34.40119911,-99999.0,'11111222,11111222,99999999' 
TABS,ioos:station:wmo:42045:1,2013-06-02T11:00:00Z,26.2168,-96.4998,2.0,3.119503507,29.40356441,-99999.0,'11111222,11111222,99999999' 
TABS,ioos:station:wmo:42045:1,2013-06-02T11:30:00Z,26.2168,-96.4998,2.0,8.244201495,42.68104966,-99999.0,'11111222,11111222,99999999' 
TABS,ioos:station:wmo:42045:1,2013-06-02T12:00:00Z,26.2168,-96.4998,2.0,16.82919466,43.5553464,-99999.0,'11111222,11111222,99999999' 
TABS,ioos:station:wmo:42045:1,2013-06-02T12:30:00Z,26.2168,-96.4998,2.0,25.0786032,47.23270901,-99999.0,'11111222,11111222,99999999' 
TABS,ioos:station:wmo:42045:1,2013-06-02T13:00:00Z,26.2168,-96.4998,2.0,20.44095881,63.42355556,-99999.0,'11111222,11111222,99999999' 
TABS,ioos:station:wmo:42045:1,2013-06-02T13:30:00Z,26.2168,-96.4998,2.0,17.62494696,80.28876945,-99999.0,'11111222,11111222,99999999' 
TABS,ioos:station:wmo:42045:1,2013-06-02T14:00:00Z,26.2168,-96.4998,2.0,20.29846765,80.13654347,-99999.0,'11111222,11111222,99999999' 
TABS,ioos:station:wmo:42045:1,2013-06-02T14:30:00Z,26.2168,-96.4998,2.0,20.53070498,84.14440029,-99999.0,'11111222,11111222,99999999' 
TABS,ioos:station:wmo:42045:1,2013-06-02T15:00:00Z,26.2168,-96.4998,2.0,24.29952867,87.89699085,-99999.0,'11111222,11111222,99999999' 
TABS,ioos:station:wmo:42045:1,2013-06-02T15:30:00Z,26.2168,-96.4998,2.0,29.30885152,87.8216175,-99999.0,'11111222,11111222,99999999' 
TABS,ioos:station:wmo:42045:1,2013-06-02T16:00:00Z,26.2168,-96.4998,2.0,33.23763354,88.48576213,-99999.0,'11111222,11111222,99999999' 
TABS,ioos:station:wmo:42045:1,2013-06-02T16:30:00Z,26.2168,-96.4998,2.0,34.25773185,88.20165815,-99999.0,'11111222,11111222,99999999' 
TABS,ioos:station:wmo:42045:1,2013-06-02T17:00:00Z,26.2168,-96.4998,2.0,38.22575339,86.56023105,-99999.0,'11111222,11111222,99999999' 
TABS,ioos:station:wmo:42045:1,2013-06-02T17:30:00Z,26.2168,-96.4998,2.0,37.74301489,82.17353832,-99999.0,'11111222,11111222,99999999' 
TABS,ioos:station:wmo:42045:1,2013-06-02T18:00:00Z,26.2168,-96.4998,2.0,38.18658703,80.34321004,-99999.0,'11111222,11111222,99999999' 
TABS,ioos:station:wmo:42045:1,2013-06-02T18:30:00Z,26.2168,-96.4998,2.0,41.79308955,75.20544728,-99999.0,'11111222,11111222,99999999' 
TABS,ioos:station:wmo:42045:1,2013-06-02T19:00:00Z,26.2168,-96.4998,2.0,40.5532796,73.59802239,-99999.0,'11111222,11111222,99999999' 
TABS,ioos:station:wmo:42045:1,2013-06-02T19:30:00Z,26.2168,-96.4998,2.0,42.76801651,68.62728612,-99999.0,'11111222,11111222,99999999' 
TABS,ioos:station:wmo:42045:1,2013-06-02T20:00:00Z,26.2168,-96.4998,2.0,47.13363685,62.67896936,-99999.0,'11111222,11111222,99999999' 
TABS,ioos:station:wmo:42045:1,2013-06-02T20:30:00Z,26.2168,-96.4998,2.0,62.7402284,47.94482245,-99999.0,'11111222,11111222,99999999' 
TABS,ioos:station:wmo:42045:1,2013-06-02T21:00:00Z,26.2168,-96.4998,2.0,75.20547811,33.16965179,-99999.0,'11111222,11111222,99999999' 
TABS,ioos:station:wmo:42045:1,2013-06-02T21:30:00Z,26.2168,-96.4998,2.0,71.81550366,22.43024966,-99999.0,'11111222,11111222,99999999' 
TABS,ioos:station:wmo:42045:1,2013-06-02T22:00:00Z,26.2168,-96.4998,2.0,79.04966935,14.6874266,-99999.0,'11111222,11111222,99999999' 
TABS,ioos:station:wmo:42045:1,2013-06-02T22:30:00Z,26.2168,-96.4998,2.0,169.5083371,2.471315439,-99999.0,'11133222,11111222,99999999' 
TABS,ioos:station:wmo:42045:1,2013-06-02T23:00:00Z,26.2168,-96.4998,2.0,123.4582115,3.428075262,-99999.0,'11133222,11111222,99999999' 
TABS,ioos:station:wmo:42045:1,2013-06-02T23:30:00Z,26.2168,-96.4998,2.0,208.3927426,5.46773262,-99999.0,'11133222,11111222,99999999' 
TABS,ioos:station:wmo:42045:1,2013-06-03T00:00:00Z,26.2168,-96.4998,2.0,221.0421405,1.126987134,-99999.0,'11133222,11111222,99999999' 
TABS,ioos:station:wmo:42045:1,2013-06-03T00:30:00Z,26.2168,-96.4998,2.0,331.0205705,2.229102959,-99999.0,'11133222,11111222,99999999' 
TABS,ioos:station:wmo:42045:1,2013-06-03T01:00:00Z,26.2168,-96.4998,2.0,307.875316,6.955070093,-99999.0,'11133222,11111222,99999999' 
TABS,ioos:station:wmo:42045:1,2013-06-03T01:30:00Z,26.2168,-96.4998,2.0,311.3258248,7.723341246,-99999.0,'11133222,11111222,99999999' 
TABS,ioos:station:wmo:42045:1,2013-06-03T02:00:00Z,26.2168,-96.4998,2.0,333.2143139,12.75909871,-99999.0,'11111222,11111222,99999999' 
TABS,ioos:station:wmo:42045:1,2013-06-03T02:30:00Z,26.2168,-96.4998,2.0,351.5718562,14.94136875,-99999.0,'11111222,11111222,99999999' 
TABS,ioos:station:wmo:42045:1,2013-06-03T03:00:00Z,26.2168,-96.4998,2.0,352.071678,13.26681951,-99999.0,'11111222,11111222,99999999' 
TABS,ioos:station:wmo:42045:1,2013-06-03T03:30:00Z,26.2168,-96.4998,2.0,321.635385,7.282478974,-99999.0,'11133222,11111222,99999999' 
TABS,ioos:station:wmo:42045:1,2013-06-03T04:00:00Z,26.2168,-96.4998,2.0,315.1648633,12.31077983,-99999.0,'11111222,11111222,99999999' 
TABS,ioos:station:wmo:42045:1,2013-06-03T04:30:00Z,26.2168,-96.4998,2.0,315.7108228,12.54503886,-99999.0,'11111222,11111222,99999999' 
TABS,ioos:station:wmo:42045:1,2013-06-03T05:00:00Z,26.2168,-96.4998,2.0,334.9355948,21.0083531,-99999.0,'11111222,11111222,99999999' 
TABS,ioos:station:wmo:42045:1,2013-06-03T05:30:00Z,26.2168,-96.4998,2.0,326.9036122,22.76334334,-99999.0,'11111222,11111222,99999999' 
TABS,ioos:station:wmo:42045:1,2013-06-03T06:00:00Z,26.2168,-96.4998,2.0,319.616657,23.98508912,-99999.0,'11111222,11111222,99999999' 
TABS,ioos:station:wmo:42045:1,2013-06-03T06:30:00Z,26.2168,-96.4998,2.0,332.508746,23.78592861,-99999.0,'11111222,11111222,99999999' 
TABS,ioos:station:wmo:42045:1,2013-06-03T07:00:00Z,26.2168,-96.4998,2.0,331.6412218,31.28450895,-99999.0,'11111222,11111222,99999999' 
TABS,ioos:station:wmo:42045:1,2013-06-03T07:30:00Z,26.2168,-96.4998,2.0,328.3576349,39.51433284,-99999.0,'11111222,11111222,99999999' 
TABS,ioos:station:wmo:42045:1,2013-06-03T08:00:00Z,26.2168,-96.4998,2.0,335.373155,48.93079296,-99999.0,'11111222,11111222,99999999' 
TABS,ioos:station:wmo:42045:1,2013-06-03T08:30:00Z,26.2168,-96.4998,2.0,344.1765337,56.91685163,-99999.0,'11111222,11111222,99999999' 
TABS,ioos:station:wmo:42045:1,2013-06-03T09:00:00Z,26.2168,-96.4998,2.0,349.2787796,58.43000086,-99999.0,'11111222,11111222,99999999' 
TABS,ioos:station:wmo:42045:1,2013-06-03T09:30:00Z,26.2168,-96.4998,2.0,352.9923796,60.65311204,-99999.0,'11111222,11111222,99999999' 
TABS,ioos:station:wmo:42045:1,2013-06-03T10:00:00Z,26.2168,-96.4998,2.0,357.9040745,62.88207694,-99999.0,'11111222,11111222,99999999' 
TABS,ioos:station:wmo:42045:1,2013-06-03T10:30:00Z,26.2168,-96.4998,2.0,358.2173742,60.7494074,-99999.0,'11111222,11111222,99999999' 
TABS,ioos:station:wmo:42045:1,2013-06-03T11:00:00Z,26.2168,-96.4998,2.0,3.001821279,45.83288012,-99999.0,'11111222,11111222,99999999' 
TABS,ioos:station:wmo:42045:1,2013-06-03T11:30:00Z,26.2168,-96.4998,2.0,4.208046061,60.78384654,-99999.0,'11111222,11111222,99999999' 
TABS,ioos:station:wmo:42045:1,2013-06-03T12:00:00Z,26.2168,-96.4998,2.0,7.841729528,61.49502825,-99999.0,'11111222,11111222,99999999' 
TABS,ioos:station:wmo:42045:1,2013-06-03T12:30:00Z,26.2168,-96.4998,2.0,5.198714219,63.46103135,-99999.0,'11111222,11111222,99999999' 
TABS,ioos:station:wmo:42045:1,2013-06-03T13:00:00Z,26.2168,-96.4998,2.0,5.408476861,63.55291496,-99999.0,'11111222,11111222,99999999' 
TABS,ioos:station:wmo:42045:1,2013-06-03T13:30:00Z,26.2168,-96.4998,2.0,5.248297389,66.68956515,-99999.0,'11111222,11111222,99999999' 
TABS,ioos:station:wmo:42045:1,2013-06-03T14:00:00Z,26.2168,-96.4998,2.0,11.17123242,67.15232312,-99999.0,'11111222,11111222,99999999' 
TABS,ioos:station:wmo:42045:1,2013-06-03T14:30:00Z,26.2168,-96.4998,2.0,14.20653832,69.43340478,-99999.0,'11111222,11111222,99999999' 
TABS,ioos:station:wmo:42045:1,2013-06-03T15:00:00Z,26.2168,-96.4998,2.0,16.66691494,70.91938522,-99999.0,'11111222,11111222,99999999' 
TABS,ioos:station:wmo:42045:1,2013-06-03T15:30:00Z,26.2168,-96.4998,2.0,21.34137287,67.04746453,-99999.0,'11111222,11111222,99999999' 
TABS,ioos:station:wmo:42045:1,2013-06-03T16:00:00Z,26.2168,-96.4998,2.0,29.44088549,63.55753378,-99999.0,'11111222,11111222,99999999' 
TABS,ioos:station:wmo:42045:1,2013-06-03T16:30:00Z,26.2168,-96.4998,2.0,29.87727127,65.02166178,-99999.0,'11111222,11111222,99999999' 
TABS,ioos:station:wmo:42045:1,2013-06-03T17:00:00Z,26.2168,-96.4998,2.0,31.17521995,59.98203814,-99999.0,'11111222,11111222,99999999' 
TABS,ioos:station:wmo:42045:1,2013-06-03T17:30:00Z,26.2168,-96.4998,2.0,32.89907566,62.87294013,-99999.0,'11111222,11111222,99999999' 
TABS,ioos:station:wmo:42045:1,2013-06-03T18:00:00Z,26.2168,-96.4998,2.0,35.81694789,58.21983339,-99999.0,'11111222,11111222,99999999' 
TABS,ioos:station:wmo:42045:1,2013-06-03T18:30:00Z,26.2168,-96.4998,2.0,36.53531932,56.49096388,-99999.0,'11111222,11111222,99999999' 
TABS,ioos:station:wmo:42045:1,2013-06-03T19:00:00Z,26.2168,-96.4998,2.0,38.90548851,57.21009788,-99999.0,'11111222,11111222,99999999' 
TABS,ioos:station:wmo:42045:1,2013-06-03T19:30:00Z,26.2168,-96.4998,2.0,38.87264553,50.47883121,-99999.0,'11111222,11111222,99999999' 
TABS,ioos:station:wmo:42045:1,2013-06-03T20:00:00Z,26.2168,-96.4998,2.0,46.0010739,51.81054912,-99999.0,'11111222,11111222,99999999' 
TABS,ioos:station:wmo:42045:1,2013-06-03T20:30:00Z,26.2168,-96.4998,2.0,47.84178432,50.77613613,-99999.0,'11111222,11111222,99999999' 
TABS,ioos:station:wmo:42045:1,2013-06-03T21:00:00Z,26.2168,-96.4998,2.0,45.00010523,41.13947253,-99999.0,'11111222,11111222,99999999' 
TABS,ioos:station:wmo:42045:1,2013-06-03T21:30:00Z,26.2168,-96.4998,2.0,38.48058066,43.90534478,-99999.0,'11111222,11111222,99999999' 
TABS,ioos:station:wmo:42045:1,2013-06-03T22:00:00Z,26.2168,-96.4998,2.0,39.03109632,37.1264057,-99999.0,'11111222,11111222,99999999' 
TABS,ioos:station:wmo:42045:1,2013-06-03T22:30:00Z,26.2168,-96.4998,2.0,34.48036821,33.38503257,-99999.0,'11111222,11111222,99999999' 
TABS,ioos:station:wmo:42045:1,2013-06-03T23:00:00Z,26.2168,-96.4998,2.0,46.29499425,31.29039469,-99999.0,'11111222,11111222,99999999' 
TABS,ioos:station:wmo:42045:1,2013-06-03T23:30:00Z,26.2168,-96.4998,2.0,27.2582582,27.72927154,-99999.0,'11111222,11111222,99999999' 
TABS,ioos:station:wmo:42045:1,2013-06-04T00:00:00Z,26.2168,-96.4998,2.0,39.39412586,28.5196704,-99999.0,'11111222,11111222,99999999' 
TABS,ioos:station:wmo:42045:1,2013-06-04T00:30:00Z,26.2168,-96.4998,2.0,26.67945667,29.15391226,-99999.0,'11111222,11111222,99999999' 
TABS,ioos:station:wmo:42045:1,2013-06-04T01:00:00Z,26.2168,-96.4998,2.0,28.54012891,27.9003405,-99999.0,'11111222,11111222,99999999' 
TABS,ioos:station:wmo:42045:1,2013-06-04T01:30:00Z,26.2168,-96.4998,2.0,28.13742085,24.4494274,-99999.0,'11111222,11111222,99999999' 
TABS,ioos:station:wmo:42045:1,2013-06-04T02:00:00Z,26.2168,-96.4998,2.0,15.25529349,15.96245595,-99999.0,'11111222,11111222,99999999' 
TABS,ioos:station:wmo:42045:1,2013-06-04T02:30:00Z,26.2168,-96.4998,2.0,21.98723693,12.6069227,-99999.0,'11111222,11111222,99999999' 
TABS,ioos:station:wmo:42045:1,2013-06-04T03:00:00Z,26.2168,-96.4998,2.0,11.9378494,19.86971817,-99999.0,'11111222,11111222,99999999' 
TABS,ioos:station:wmo:42045:1,2013-06-04T03:30:00Z,26.2168,-96.4998,2.0,0.530476745,22.69097177,-99999.0,'11111222,11111222,99999999' 
TABS,ioos:station:wmo:42045:1,2013-06-04T04:00:00Z,26.2168,-96.4998,2.0,336.6914197,20.47071078,-99999.0,'11111222,11111222,99999999' 
TABS,ioos:station:wmo:42045:1,2013-06-04T04:30:00Z,26.2168,-96.4998,2.0,343.8806774,29.82248984,-99999.0,'11111222,11111222,99999999' 
TABS,ioos:station:wmo:42045:1,2013-06-04T05:00:00Z,26.2168,-96.4998,2.0,334.5476787,41.23192089,-99999.0,'11111222,11111222,99999999' 
TABS,ioos:station:wmo:42045:1,2013-06-04T05:30:00Z,26.2168,-96.4998,2.0,335.972077,48.70009548,-99999.0,'11111222,11111222,99999999' 
TABS,ioos:station:wmo:42045:1,2013-06-04T06:00:00Z,26.2168,-96.4998,2.0,338.8868564,54.74507558,-99999.0,'11111222,11111222,99999999' 
TABS,ioos:station:wmo:42045:1,2013-06-04T06:30:00Z,26.2168,-96.4998,2.0,339.8495488,52.28007747,-99999.0,'11111222,11111222,99999999' 
TABS,ioos:station:wmo:42045:1,2013-06-04T07:00:00Z,26.2168,-96.4998,2.0,342.7314158,53.76353039,-99999.0,'11111222,11111222,99999999' 
TABS,ioos:station:wmo:42045:1,2013-06-04T07:30:00Z,26.2168,-96.4998,2.0,350.2735787,52.38300679,-99999.0,'11111222,11111222,99999999' 
TABS,ioos:station:wmo:42045:1,2013-06-04T08:00:00Z,26.2168,-96.4998,2.0,353.183564,55.77426647,-99999.0,'11111222,11111222,99999999' 
TABS,ioos:station:wmo:42045:1,2013-06-04T08:30:00Z,26.2168,-96.4998,2.0,354.534412,55.43203767,-99999.0,'11111222,11111222,99999999' 
TABS,ioos:station:wmo:42045:1,2013-06-04T09:00:00Z,26.2168,-96.4998,2.0,355.3168694,55.11401727,-99999.0,'11111222,11111222,99999999' 
TABS,ioos:station:wmo:42045:1,2013-06-04T09:30:00Z,26.2168,-96.4998,2.0,0.434340289,54.1115533,-99999.0,'11111222,11111222,99999999' 
TABS,ioos:station:wmo:42045:1,2013-06-04T10:00:00Z,26.2168,-96.4998,2.0,359.9265792,54.47004498,-99999.0,'11111222,11144222,99999999' 
TABS,ioos:station:wmo:42045:1,2013-06-04T10:30:00Z,26.2168,-96.4998,2.0,5.272755349,52.45193323,-99999.0,'11111222,11111222,99999999' 
TABS,ioos:station:wmo:42045:1,2013-06-04T11:00:00Z,26.2168,-96.4998,2.0,8.795604536,37.14682355,-99999.0,'11111222,11111222,99999999' 
TABS,ioos:station:wmo:42045:1,2013-06-04T11:30:00Z,26.2168,-96.4998,2.0,9.238719846,57.24252004,-99999.0,'11111222,11111222,99999999' 
TABS,ioos:station:wmo:42045:1,2013-06-04T12:00:00Z,26.2168,-96.4998,2.0,11.36645055,57.84448202,-99999.0,'11111222,11111222,99999999' 
TABS,ioos:station:wmo:42045:1,2013-06-04T12:30:00Z,26.2168,-96.4998,2.0,12.49933548,58.68078135,-99999.0,'11111222,11111222,99999999' 
TABS,ioos:station:wmo:42045:1,2013-06-04T13:00:00Z,26.2168,-96.4998,2.0,20.21562987,60.25150621,-99999.0,'11111222,11111222,99999999' 
TABS,ioos:station:wmo:42045:1,2013-06-04T13:30:00Z,26.2168,-96.4998,2.0,23.02422628,55.60984535,-99999.0,'11111222,11111222,99999999' 
TABS,ioos:station:wmo:42045:1,2013-06-04T14:00:00Z,26.2168,-96.4998,2.0,20.87175872,55.04177504,-99999.0,'11111222,11111222,99999999' 
TABS,ioos:station:wmo:42045:1,2013-06-04T14:30:00Z,26.2168,-96.4998,2.0,28.02731717,58.01354756,-99999.0,'11111222,11111222,99999999' 
TABS,ioos:station:wmo:42045:1,2013-06-04T15:00:00Z,26.2168,-96.4998,2.0,36.4081123,58.54790261,-99999.0,'11111222,11111222,99999999' 
TABS,ioos:station:wmo:42045:1,2013-06-04T15:30:00Z,26.2168,-96.4998,2.0,35.81438351,55.14735986,-99999.0,'11111222,11111222,99999999' 
TABS,ioos:station:wmo:42045:1,2013-06-04T16:00:00Z,26.2168,-96.4998,2.0,41.14796533,56.62576445,-99999.0,'11111222,11111222,99999999' 